[TLELIST] Archives

 

[TLELIST] Current TLEs

October 12th 2024 PDT

HST 1 20580U 90037B 24286.15320224 .00018111 00000-0 80312-3 0 9994 2 20580 28.4686 280.2439 0002703 229.5338 130.5020 15.20183039695095 ISS (ZARYA) 1 25544U 98067A 24286.17692722 .00031145 00000-0 55599-3 0 9998 2 25544 51.6377 95.9360 0009253 61.6494 298.5427 15.49732338476696 CXO 1 25867U 99040B 24286.86180913 .00001176 00000-0 00000-0 0 9993 2 25867 43.7215 144.4103 8764486 302.5151 0.6012 0.37805863 15004 ...Continue Reading

[TLELIST] Current TLEs

October 11th 2024 PDT

HST 1 20580U 90037B 24285.16843810 .00051805 00000-0 23038-2 0 9993 2 20580 28.4689 286.8665 0002783 218.9529 141.0863 15.20177920694940 ISS (ZARYA) 1 25544U 98067A 24285.20963619 .00088662 00000-0 15590-2 0 9999 2 25544 51.6375 100.7254 0009189 58.4718 301.7167 15.49687368476546 CXO 1 25867U 99040B 24286.86180913 .00001176 00000-0 00000-0 0 9993 2 25867 43.7215 144.4103 8764486 302.5151 0.6012 0.37805863 15004 ...Continue Reading

[TLELIST] [TLELIST] Current TLEs

October 11th 2024 PDT

HST 1 20580U 90037B 24285.16843810 .00051805 00000-0 23038-2 0 9993 2 20580 28.4689 286.8665 0002783 218.9529 141.0863 15.20177920694940 ISS (ZARYA) 1 25544U 98067A 24285.20963619 .00088662 00000-0 15590-2 0 9999 2 25544 51.6375 100.7254 0009189 58.4718 301.7167 15.49687368476546 CXO 1 25867U 99040B 24286.86180913 .00001176 00000-0 00000-0 0 9993 2 25867 43.7215 144.4103 8764486 302.5151 0.6012 0.37805863 15004 ...Continue Reading

[TLELIST] Current TLEs

October 10th 2024 PDT

HST 1 20580U 90037B 24283.72407024 .00013930 00000-0 61767-3 0 9995 2 20580 28.4692 296.5786 0002891 202.7082 157.3384 15.20089484694463 ISS (ZARYA) 1 25544U 98067A 24284.27308581 -.00006202 00000-0 -10212-3 0 9995 2 25544 51.6400 105.3624 0008963 56.1479 115.9340 15.49562618476396 CXO 1 25867U 99040B 24284.21733196 .00001167 00000-0 00000-0 0 9997 2 25867 43.6539 144.5911 8767549 302.4286 0.5197 0.37806327 14997 ...Continue Reading

[TLELIST] Current TLEs

October 10th 2024 PDT

HST 1 20580U 90037B 24283.72407024 .00013930 00000-0 61767-3 0 9995 2 20580 28.4692 296.5786 0002891 202.7082 157.3384 15.20089484694463 ISS (ZARYA) 1 25544U 98067A 24284.27308581 -.00006202 00000-0 -10212-3 0 9995 2 25544 51.6400 105.3624 0008963 56.1479 115.9340 15.49562618476396 CXO 1 25867U 99040B 24284.21733196 .00001167 00000-0 00000-0 0 9997 2 25867 43.6539 144.5911 8767549 302.4286 0.5197 0.37806327 14997 ...Continue Reading

[TLELIST] Current TLEs

October 9th 2024 PDT

HST 1 20580U 90037B 24283.13317996 .00019260 00000-0 85723-3 0 9998 2 20580 28.4693 300.5520 0002918 196.3711 163.6788 15.20075282694631 ISS (ZARYA) 1 25544U 98067A 24283.24020010 .00006615 00000-0 12586-3 0 9991 2 25544 51.6360 110.4759 0008797 52.7655 113.6830 15.49501009476239 CXO 1 25867U 99040B 24284.21733196 .00001167 00000-0 00000-0 0 9997 2 25867 43.6539 144.5911 8767549 302.4286 0.5197 0.37806327 14997 ...Continue Reading

[TLELIST] Current TLEs

October 8th 2024 PDT

HST 1 20580U 90037B 24282.14834584 .00038785 00000-0 17316-2 0 9990 2 20580 28.4696 307.1739 0002981 186.5640 173.4915 15.20059076694488 ISS (ZARYA) 1 25544U 98067A 24282.30379630 .00057088 00000-0 10186-2 0 9995 2 25544 51.6393 115.1095 0009462 49.0370 290.5835 15.49463887476087 CXO 1 25867U 99040B 24284.21733196 .00001167 00000-0 00000-0 0 9997 2 25867 43.6539 144.5911 8767549 302.4286 0.5197 0.37806327 14997 ...Continue Reading

[TLELIST] Current TLEs

October 7th 2024 PDT

HST 1 20580U 90037B 24280.76953722 .00016933 00000-0 75472-3 0 9991 2 20580 28.4697 316.4441 0003092 172.6211 187.4428 15.19986492694018 ISS (ZARYA) 1 25544U 98067A 24281.33696759 -.00029536 00000-0 -52297-3 0 9990 2 25544 51.6389 119.8964 0008928 44.9912 298.2044 15.49324669475934 CXO 1 25867U 99040B 24284.21640134 .00001167 00000-0 00000+0 0 9995 2 25867 43.6538 144.5912 8767542 302.4287 0.3933 0.37806832 26159 ...Continue Reading

[TLELIST] Current TLEs

October 6th 2024 PDT

HST 1 20580U 90037B 24279.78464744 .00018700 00000-0 83502-3 0 9999 2 20580 28.4698 323.0651 0003134 162.2221 197.8482 15.19955639693865 ISS (ZARYA) 1 25544U 98067A 24280.38292282 .00008236 00000-0 15581-3 0 9994 2 25544 51.6367 124.6156 0009364 40.3703 18.0494 15.49286146475798 CXO 1 25867U 99040B 24281.57344857 .00001098 00000-0 00000-0 0 9998 2 25867 43.6010 144.7538 8770261 302.3429 0.5256 0.37809572 14981 ...Continue Reading

[TLELIST] Current TLEs

October 5th 2024 PDT

HST 1 20580U 90037B 24278.47142740 .00018346 00000-0 82018-3 0 9990 2 20580 28.4698 331.8929 0003213 148.8074 211.2710 15.19908996693661 ISS (ZARYA) 1 25544U 98067A 24279.10812394 .00032724 00000-0 59395-3 0 9994 2 25544 51.6399 130.9307 0008969 35.6774 108.0753 15.49236651475598 CXO 1 25867U 99040B 24281.57344857 .00001098 00000-0 00000-0 0 9998 2 25867 43.6010 144.7538 8770261 302.3429 0.5256 0.37809572 14981 ...Continue Reading
  • This mailing list is a public mailing list - anyone may join or leave, at any time.
  • This mailing list is announce-only.

International Space Station (ISS) / Hubble Space Telescope (HST) / Chandra X-Ray Observatory Orbital Data via EMAIL

Privacy Policy:

Private list